BREEZE-M DEB (TANK), 41390

Orbit data source: Space-Track

BREEZE-M DEB (TANK), 41390 is space debris in HEO originally from a launch on Mon, 14 Mar 2016 UTC launched from the Tyuratam Missile And Space Complex (TTMTR). Debris objects in space refer to the collection of defunct objects orbiting the Earth. Examples of debris include non-operational satellites, rocket bodies, and fragments generated from explosions, collisions, or faulty payload assembly.

Loading next visibility...
Identifier
41390, 2016-017C
Orbit
HEO
Country
Flag of CISCIS
Related business
Manufacturer
Khrunichev
Mission
Spacecraft
Bus & Motor
BRIZ TANK, Unknown motor
Mass
~1,000 kg wet, 1,000 kg dry
Launch date (UTC)
2016-03-14 (10 years ago)
Launch vehicle
Unknown
Launch site
Tyuratam Missile And Space Complex (TTMTR)
Object type
Payload
Rocket body
Debris
Shape & HBR
Torus, 2.0 m
Radar Cross Section
8.218 m², Large (>1 m²)

Expand to show TLE details & history
Last TLE update: 2 days ago

TLE from 2 days ago
0 BREEZE-M DEB (TANK)
1 41390U 16017C   25352.74502422  .00000046  00000-0  81813-4 0  9990
2 41390  51.5818 153.5896 5919062 223.4463  70.7338  3.82663493136518
Epoch: 2025-12-18T17:52Z
TLE epoch observation values (Epoch: 2025-12-18T17:52:50.092Z)
Latitude
0.00001°
Longitude
157.75336°
Altitude
13,302.557 km
Speed
4.174 km/s
True Right ascension
10h 14m 13s
True Declination
0° 00' 00"
Sunlit
Object was in daylight at epoch
Visualization orbit readout
Latitude
Unknown
Longitude
Unknown
Altitude
Unknown
Speed
Unknown
Apparent Right ascension
Unknown
Apparent Declination
Unknown
Sunlit
N/A
Visualization observer readout
Local Sidereal Time
18:13:35
Azimuth
Unknown
Elevation
Unknown
Doppler factor
Unknown
Orbital elements
Apogee altitude
21,108.267 km
Perigee altitude
668.152 km
Semi-major axis
17,266.347 km
Eccentricity
0.59191
Inclination
51.5818°
RAAN
153.5896°
Arg. of periapsis
223.4463°
True anomaly
136.61222°
Mean anomaly
70.7338°
Eccentric anomaly
103.68478°
Mean motion
0.95663 °/min
Orbital period
376.32 mins
BSTAR
0.000081813
Loading maneuver chart data...
Computing Atmospheric mass density...
Loading historical data...
Loading historical data...
Loading historical data...
Loading historical data...
Loading historical data...
Loading historical data...
Loading historical data...
Other satellites on launch #17 in the year 2016 (2016-03-14 UTC)

Documentation

Showing up to 5 results
|